Regional Weather Roundup
Issued by NWS Jackson, KY

Home | Current Version | Previous Version | Text Only | Print | Product List | Glossary Off
Versions: 1 2 3 4 5 6 7 8 9 10 11 12 13 14 15 16 17 18 19 20 21 22 23 24 25 26 27 28 29 30 31 32 33 34 35 36 37 38 39 40 41 42 43 44 45 46 47 48 49 50

475
ASUS43 KJKL 270410
RWRJKL

EAST KENTUCKY HOURLY WEATHER ROUNDUP
NATIONAL WEATHER SERVICE JACKSON KY
1200 AM EDT TUE SEP 27 2016

NOTE: "FAIR" INDICATES FEW OR NO CLOUDS BELOW 12,000 FEET WITH
NO SIGNIFICANT WEATHER AND/OR OBSTRUCTIONS TO VISIBILITY.

* THESE REPORTS ARE NOT UNDER NWS QUALITY CONTROL AND MAY NOT
  REPORT WEATHER SUCH AS PRECIPITATION AND FOG.

KYZ079-080-083-085-087-088-110-112-115-119-120-270500
...EASTERN KENTUCKY...

CITY           SKY/WX    TMP DP  RH WIND       PRES   REMARKS
JACKSON        PTCLDY    59  55  87 VRB3      30.09S
LONDON         PTCLDY    60  54  80 VRB5      30.10R
SOMERSET*      CLEAR     55  55 100 CALM      30.11S
MONTICELLO*    CLOUDY    56  54  93 N8        30.12S
WILLIAMSBURG*  CLOUDY    63  59  88 N7        30.10R
MIDDLESBORO*   CLOUDY    68  64  84 N3        30.07S
HARLAN APT*    CLOUDY    68  61  77 CALM      30.07S
PIKE CO APT*   CLOUDY    62  58  88 NW6       30.08S
BIG SANDY APT* MOCLDY    60  57  92 CALM      30.09R
MOREHEAD APT*  PTCLDY    57  52  82 SW6       30.10S
ASHLAND*       PTCLDY    57  54  88 CALM      30.05S
$$

KYZ035-036-041-042-044-050-067-078-099-270500
...CENTRAL KENTUCKY...

CITY           SKY/WX    TMP DP  RH WIND       PRES   REMARKS
MT STERLING*   CLEAR     52  52 100 W3        30.10S
FLEMING/MASON* CLEAR     54  52  94 SW5       30.09S
DANVILLE*      CLEAR     52  52 100 CALM      30.11F
LEXINGTON      CLEAR     54  50  86 S6        30.09S
FRANKFORT      CLEAR     54  51  90 SW5       30.07F
LOUISVILLE     PTCLDY    59  52  77 SW5       30.07F
LEBANON*         N/A     55  54  94 S3        30.10F
GLASGOW*       CLEAR    N/A N/A N/A CALM      30.11S FOG
BOWLING GREEN  CLEAR     56  54  93 CALM      30.10F
$$

KYZ091>093-OHZ055-061-077-WVZ005-015-034-035-042-270500
...SOUTHERN OHIO/WEST VIRGINIA...

CITY           SKY/WX    TMP DP  RH WIND       PRES   REMARKS
COVINGTON      CLEAR     55  50  83 SW6       30.05F
COLUMBUS       CLEAR     55  51  86 S6        30.01F
DAYTON         CLEAR     55  46  71 SW10      30.03F
WILMINGTON     CLEAR     52  50  93 SW3       30.04F
HUNTINGTON     PTCLDY    59  54  83 CALM      30.06S
CHARLESTON     PTCLDY    62  55  77 NW5       30.06S
PINEVILLE*     CLOUDY    65  62  89 MISG      30.11S
BECKLEY        CLOUDY    62  60  93 NW7       30.08S
BLUEFIELD      CLOUDY    64  62  93 NW5       30.09S
LOGAN CO APT*  CLOUDY    63  57  82 NW7       30.06S
$$

VAZ002-007-008-TNZ017-027-036-066-071-270500
...SOUTHWEST VIRGINIA/EAST TENNESSEE...

CITY           SKY/WX    TMP DP  RH WIND       PRES   REMARKS
WISE*          CLOUDY    64  63  94 NW3       30.11S FOG
JONESVILLE*    CLOUDY    70  64  83 CALM      30.08S
ABINGDON*      CLOUDY    68  67  95 CALM      30.08S
BRISTOL        CLOUDY    68  66  93 CALM      30.05S FOG
MORRISTOWN*    CLOUDY    68  68 100 CALM      30.04S
SEVIERVILLE*   MOCLDY    68  66  94 CALM      30.03S
KNOXVILLE      LGT RAIN  70  67  90 CALM      30.03S
OAK RIDGE      MOCLDY    71  67  87 CALM      30.05S
CROSSVILLE     FOG       63  62  97 N8        30.10F VSB 1
NASHVILLE      PTCLDY    62  56  80 N6        30.10F
$$

...KEY TO REMARKS...
VSB - VISIBILITY IN MILES
WCI - WIND CHILL INDEX
HX  - HEAT INDEX

$$




USA.gov is the U.S. government's official web portal to all federal, state and local government web resources and services.